Location: Bou Ouachlou
(32.7770°N, 5.6009°W)
Time: 03:10:41
(UTC+00:00)

Cosmos 2227 Rocket - Pass Details

Date: 07 June 2020
Orbit: 838 x 846 km, 71.0° (Epoch: 11 July)

Event Time Altitude Azimuth Distance (km) Brightness Sun altitude
Rises 01:48:04 0° 321° (NW) 3,408 5.7 -30.7°
Reaches altitude 10° 01:51:09 10° 305° (NW) 2,468 4.7 -30.4°
Enters shadow 01:52:00 13° 298° (WNW) 2,258 4.4 -30.4°
